STARLINK-1548, 46054

Orbit data source: Space-Track

STARLINK-1548, 46054 is a payload satellite owned by SpaceX/Seattle (US) in LEO that was launched on Fri, 07 Aug 2020 UTC via an FALCON 9 launch vehicle from the Air Force Eastern Test Range (AFETR). Payload-class satellites include a variety of spacecraft equipped with specific instruments for various scientific and technological missions. These include communications satellites like Starlink; space stations such as the ISS; scientific satellites like the Hubble; Earth observation satellites from companies like Planet Labs, Umbra, and HawkEye 360; GPS; miniature CubeSats for education and research; and military/defense satellites.

Loading next visibility...
Identifier
46054, 2020-055AD
Orbit
LEO
Country
Flag of USUS
Related business
Manufacturer
SpaceX/Seattle
Mission
Operational Commercial Communications
Bus & Motor
STARLINK, Unknown motor
Mass
260 kg wet, ~248 kg dry
Launch date (UTC)
2020-08-07 (5 years ago)
Launch vehicle
FALCON 9
Launch site
Air Force Eastern Test Range (AFETR)
Object type
Payload
Rocket body
Debris
Shape & HBR
Box + 1 Pan, 10.1 m
Radar Cross Section
13.562 m², Large (>1 m²)

Expand to show TLE details & history
Last TLE update: 20 hours ago

TLE from 20 hours ago
0 STARLINK-1548
1 46054U 20055AD  25340.81098490  .00000190  00000-0  31651-4 0  9994
2 46054  53.0544 173.5676 0001339  87.6636 272.4506 15.06400657295038
Epoch: 2025-12-06T19:27Z
TLE epoch observation values (Epoch: 2025-12-06T19:27:49.095Z)
Latitude
-0.00004°
Longitude
165.77964°
Altitude
548.049 km
Speed
7.589 km/s
True Right ascension
11h 34m 16s
True Declination
0° 00' 00"
Sunlit
Object was in daylight at epoch
Visualization orbit readout
Latitude
Unknown
Longitude
Unknown
Altitude
Unknown
Speed
Unknown
Apparent Right ascension
Unknown
Apparent Declination
Unknown
Sunlit
N/A
Visualization observer readout
Local Sidereal Time
13:31:21
Azimuth
Unknown
Elevation
Unknown
Doppler factor
Unknown
Orbital elements
Apogee altitude
548.408 km
Perigee altitude
546.553 km
Semi-major axis
6,925.617 km
Eccentricity
0.00013
Inclination
53.0544°
RAAN
173.5676°
Arg. of periapsis
87.6636°
True anomaly
272.43527°
Mean anomaly
272.4506°
Eccentric anomaly
272.44294°
Mean motion
3.76578 °/min
Orbital period
95.6 mins
BSTAR
0.000031651
Loading maneuver chart data...
Computing Atmospheric mass density...

Documentation

Showing up to 5 results
|